Regional Weather Roundup
Issued by NWS Grand Forks, ND

Home | Current Version | Previous Version | Text Only | Print | Product List | Glossary Off
Versions: 1 2 3 4 5 6 7 8 9 10 11 12 13 14 15 16 17 18 19 20 21 22 23 24 25 26 27 28 29 30 31 32 33 34 35 36 37 38 39 40 41 42 43 44 45 46 47 48 49 50

000
ASUS43 KFGF 221210
RWRFGF
PRAIRIE TO PINES  WEATHER ROUNDUP
NATIONAL WEATHER SERVICE EASTERN NORTH DAKOTA/GRAND FORKS ND
700 AM CDT MON MAY 22 2017

 **SATELLITE DATA USED TO AUGMENT SKY COVER AT AUTOMATED STATIONS**
 *****  WEATHER ACROSS EASTERN NORTH DAKOTA  *****

CITY           SKY/WX    TMP DP  RH WIND       PRES   REMARKS
GRAND FORKS    CLOUDY    49  44  83 NW10      29.83S
6HR MIN TEMP:  46; 6HR MAX TEMP:  49; 6HR PCP:  0.01;

GRAND FRKS AFB FAIR      48  42  79 NW13      29.84S
DEVILS LAKE    FAIR      46  41  82 NW9       29.89S
6HR MIN TEMP:  41; 6HR MAX TEMP:  46;

FARGO          CLOUDY    46  43  89 W7        29.86R
WAHPETON ARPT  PTSUNNY   41  37  87 W5        29.88R
$$

 ***** WEATHER ACROSS CENTRAL AND WESTERN NORTH DAKOTA  *****

CITY           SKY/WX    TMP DP  RH WIND       PRES   REMARKS
BISMARCK       CLOUDY    45  37  73 NE7       29.92R
6HR MIN TEMP:  37; 6HR MAX TEMP:  48;

MINOT          FAIR      50  41  71 NW5       29.94R
6HR MIN TEMP:  45; 6HR MAX TEMP:  53;

JAMESTOWN      CLOUDY    45  42  89 NW6       29.88R
6HR MIN TEMP:  38; 6HR MAX TEMP:  45;

MINOT AFB      FAIR      46  42  86 NW6       29.94R
GARRISON         N/A     45  39  79 NW5       29.92R
WILLISTON      LGT RAIN  50  41  71 N14       29.99R
6HR MIN TEMP:  49; 6HR MAX TEMP:  55; 6HR PCP: TRACE;

DICKINSON      CLOUDY    45  40  82 NW12      29.94R
6HR MIN TEMP:  44; 6HR MAX TEMP:  50; 6HR PCP: TRACE;

HETTINGER      FAIR      45  42  89 W14       29.97S
6HR MIN TEMP:  45; 6HR MAX TEMP:  50; 6HR PCP: TRACE;

$$

 *****  OTHER AIRPORT OBSERVATIONS IN OUR AREA  *****

CITY           SKY/WX    TMP DP  RH WIND       PRES   REMARKS
WALHALLA       NOT AVBL
GRAFTON AIRPOR PTSUNNY   48  45  87 NW12      29.85R
VALLEY CITY AR NOT AVBL
CANDO          NOT AVBL
CAVALIER APRT  PTSUNNY   48  43  81 NW12      29.84S
GWINNER        SUNNY     43  43 100 MISG      29.88
SHEYENNE NWR     N/A     42  41  97 W2        29.95S
ROLLA          FAIR      46  37  71 NW16      29.91R
 ***** THE ABOVE OBSERVATIONS ARE NON NWS ARE NOT QUALITY
       CONTROLLED AND MAY MIS-REPORT RAIN FOR SNOW...
$$

  *****  WEATHER ACROSS NORTHERN MINNESOTA  *****

CITY           SKY/WX    TMP DP  RH WIND       PRES   REMARKS
FLAG ISLAND    CLOUDY    45  43  93 NW17      29.75S
WARROAD        PTSUNNY   45  41  87 NW8       29.77S
ROSEAU         CLOUDY    46  43  87 NW7       29.78S
HALLOCK        CLOUDY    48  46  93 N14       29.82R
THF RVR FALLS  CLOUDY    45  43  93 W9        29.80F
6HR MIN TEMP:  44; 6HR MAX TEMP:  45; 6HR PCP:  0.01;

BAUDETTE       CLOUDY    45  42  89 W8        29.75R
6HR MIN TEMP:  45; 6HR MAX TEMP:  46; 6HR PCP:  0.01;

WASKISH        CLOUDY    46  45  93 NW14      29.76S
CROOKSTON      FAIR      46  45  93 NW9       29.82F
STEPHEN NDAWN    N/A     46  45  93 NW14        N/A
GREENBUSH NDAW   N/A     46  45  93 NW9         N/A
$$
  *****  WEATHER ACROSS CENTRAL AND WEST MINNESOTA  *****

CITY           SKY/WX    TMP DP  RH WIND       PRES   REMARKS
FOSSTON        CLOUDY    43  43 100 W6        29.81F
BEMIDJI        DRIZZLE   43  43  98 NW8       29.78S
PARK RAPIDS    CLOUDY    45  41  86 W12       29.80R
6HR MIN TEMP:  44; 6HR MAX TEMP:  45;

ELBOW LAKE     FAIR      40  40  98 CALM      29.88R
WADENA         FAIR      43  41  93 W8        29.83S
DETROIT LAKES  FAIR      43  41  93 NW8       29.84S
MOORHEAD       FAIR      45  41  87 NW10      29.87R
FERGUS FALLS   FAIR      39  39 100 CALM      29.87R
MORRIS MN      FAIR      41  39  93 W6        29.87S
STAPLES        CLOUDY    45  41  87 W10       29.82S
$$
  *****  WEATHER ELSEWHERE ACROSS MINNESOTA  *****

CITY           SKY/WX    TMP DP  RH WIND       PRES   REMARKS
DULUTH         PTSUNNY   45  43  93 W12       29.74F
6HR MIN TEMP:  45; 6HR MAX TEMP:  45; 6HR PCP: TRACE;

INTRNTL FALLS  CLOUDY    44  42  93 W6        29.72S
6HR MIN TEMP:  44; 6HR MAX TEMP:  46; 6HR PCP:  0.01;

ELY            CLOUDY    43  43 100 W7        29.71R FOG
CLOQUET        CLOUDY    45  41  87 SW7       29.76S
WHEATON        FAIR      43  39  87 CALM      29.91R
BRAINERD       CLOUDY    44  42  93 W10       29.81S
6HR MIN TEMP:  43; 6HR MAX TEMP:  45;

HIBBING        CLOUDY    44  42  93 W5        29.73F
6HR MIN TEMP:  43; 6HR MAX TEMP:  44;

ALEXANDRIA     FAIR      43  41  93 W8        29.87R
6HR MIN TEMP:  40; 6HR MAX TEMP:  44;

SAINT CLOUD    FAIR      44  42  93 W6        29.84S
6HR MIN TEMP:  39; 6HR MAX TEMP:  44;

MINNEAPOLIS    FAIR      47  41  80 SW8       29.87S
6HR MIN TEMP:  45; 6HR MAX TEMP:  47;

$$

  *****  WEATHER ACROSS SOUTH DAKOTA  *****

CITY           SKY/WX    TMP DP  RH WIND       PRES   REMARKS
SIOUX FALLS    FAIR      49  45  86 W3        29.89R
6HR MIN TEMP:  48; 6HR MAX TEMP:  54;

BROOKINGS      FAIR      43  41  93 CALM      29.89R
WATERTOWN      FAIR      38  36  92 CALM      29.87S
6HR MIN TEMP:  34; 6HR MAX TEMP:  42;

HURON          FAIR      46  42  86 W7        29.87F
6HR MIN TEMP:  42; 6HR MAX TEMP:  47;

SISSETON         N/A     41  39  93 N5        29.88S
ABERDEEN       FAIR      37  35  92 CALM      29.89R
6HR MIN TEMP:  33; 6HR MAX TEMP:  45;

MITCHELL       FAIR      48  44  86 W10       29.90F
PIERRE         CLOUDY    47  42  83 W8        29.92R
6HR MIN TEMP:  44; 6HR MAX TEMP:  51;

MOBRIDGE       CLOUDY    53  43  68 NW12      29.87R
RAPID CITY     MOCLDY    46  42  86 N12       30.00F
6HR MIN TEMP:  40; 6HR MAX TEMP:  50;

$$

  *****  SOME WEATHER IN NEARBY STATES *****

CITY           SKY/WX    TMP DP  RH WIND       PRES   REMARKS
GLASGOW MT     MOCLDY    46  43  89 MISG      30.06F
6HR MIN TEMP:  44; 6HR MAX TEMP:  50; 6HR PCP:  0.03;

GREAT FALLS MT CLOUDY    50  41  71 SW10      30.19R
6HR MIN TEMP:  47; 6HR MAX TEMP:  53;

CHEYENNE WY    FAIR      37  32  82 W12       30.18F
6HR MIN TEMP:  35; 6HR MAX TEMP:  40;

SCOTTSBLUFF NE FAIR      38  50 100 NW6       30.11F
6HR MIN TEMP:  38; 6HR MAX TEMP:  44;

OMAHA NE       MOCLDY    55  47  74 E8        29.97S
6HR MIN TEMP:  49; 6HR MAX TEMP:  55;

DES MOINES IA  PTSUNNY   54  44  69 S12       29.97S
6HR MIN TEMP:  48; 6HR MAX TEMP:  54;

DAVENPORT IA   FAIR      49  44  83 S9        30.02S
6HR MIN TEMP:  45; 6HR MAX TEMP:  49;

CHICAGO IL     FAIR      50  43  77 W10       30.03R
6HR MIN TEMP:  48; 6HR MAX TEMP:  52;

EAU CLAIRE WI  FAIR      45  42  89 SW8       29.87R
6HR MIN TEMP:  43; 6HR MAX TEMP:  45; 6HR PCP:  0.01;

LA CROSSE WI   PTSUNNY   50  43  77 S12       29.92S
6HR MIN TEMP:  47; 6HR MAX TEMP:  50;

$$

  *****  SOME NATIONAL WEATHER *****

CITY           SKY/WX    TMP DP  RH WIND       PRES   REMARKS
LA GUARDIA NY  CLOUDY    58  49  72 SE8       30.16S
6HR MIN TEMP:  57; 6HR MAX TEMP:  60; 6HR PCP:  0.11;

RALEIGH NC     CLOUDY    70  68  93 S14G24    30.01F
6HR MIN TEMP:  68; 6HR MAX TEMP:  70; 6HR PCP:  0.06;

ATLANTA GA     FAIR      71  68  90 S3        30.06F
6HR MIN TEMP:  68; 6HR MAX TEMP:  72;

NEW ORLEANS LA CLOUDY    72  69  90 E3        30.06F
6HR MIN TEMP:  70; 6HR MAX TEMP:  72;

OKLAHOMA CITY  MOCLDY    52  50  93 SE6       30.09F
6HR MIN TEMP:  50; 6HR MAX TEMP:  60;

ALBUQUERQUE NM FAIR      58  22  24 N9        30.13R
6HR MIN TEMP:  57; 6HR MAX TEMP:  67;

SALT LAKE CITY FAIR      51  44  77 SE7       30.24R
6HR MIN TEMP:  50; 6HR MAX TEMP:  57;

LOS ANGELES CA   N/A     59  58  96 CALM      29.92S FOG
6HR MIN TEMP:  59; 6HR MAX TEMP:  62;

BOISE ID       FAIR



USA.gov is the U.S. government's official web portal to all federal, state and local government web resources and services.